Location: Unspecified
(41.1850°N, 73.2650°W)
Time: 09:48:33
(UTC+00:00)

BlueWalker 3 - Pass Details

Date: 25 February 2026
Orbit: 451 x 458 km, 53.2° (Epoch: 6 March)

Event Time Altitude Azimuth Distance (km) Brightness Sun altitude
Exits shadow 10:54:46 - 250° (WSW) 1,723 4.1 -8.0°
Reaches altitude 10° 10:55:06 10° 251° (WSW) 1,594 3.9 -8.0°
Maximum altitude 10:58:34 47° 326° (NNW) 613 2.1 -7.3°
Drops below altitude 10° 11:02:04 10° 42° (NE) 1,598 5.0 -6.7°
Sets 11:04:16 0° 48° (NE) 2,473 6.1 -6.3°
